Station Historical Data
Daily Summary for March 10, 2017 Units:  English    Metric   Both
« Previous Day
Next Day »
Daily Weekly Monthly Yearly Custom
  High: Low: Average:
Temperature: 62.6 °F 49.1 °F 54.2 °F
Dew Point: 53.1 °F 42.4 °F 47.5 °F
Humidity: 91 % 62 % 79 %
Wind Speed: 8.0 mph 0.0 mph 0.9 mph
Wind Gust: 9.0 mph - -
Wind:- - SE
Pressure: 30.23 in 30.13 in -
Precipitation: 0.00 in    
Historical Graphs
 
 
Tabular Data for March 10, 2017
Time Temperature Dew Point Pressure Wind Wind Speed Wind Gust Humidity Rainfall Rate (Hourly) solar
00:01 50.9 °F 46.6 °F 30.21 in East 2.0 mph 4.0 mph 85 % 0.00 in 0.00 W/m2
00:06 50.8 °F 46.5 °F 30.21 in East 2.0 mph 5.0 mph 85 % 0.00 in 0.00 W/m2
00:11 50.8 °F 46.5 °F 30.22 in Calm   5.0 mph 85 % 0.00 in 0.00 W/m2
00:16 50.7 °F 46.4 °F 30.21 in Calm   5.0 mph 85 % 0.00 in 0.00 W/m2
00:21 50.7 °F 46.4 °F 30.21 in East 1.0 mph 6.0 mph 85 % 0.00 in 0.00 W/m2
00:26 50.6 °F 46.3 °F 30.21 in Calm   4.0 mph 85 % 0.00 in 0.00 W/m2
00:31 50.6 °F 46.3 °F 30.21 in East 2.0 mph 4.0 mph 85 % 0.00 in 0.00 W/m2
00:36 50.6 °F 46.3 °F 30.21 in East 2.0 mph 7.0 mph 85 % 0.00 in 0.00 W/m2
00:41 50.6 °F 46.3 °F 30.21 in East 4.0 mph 5.0 mph 85 % 0.00 in 0.00 W/m2
00:46 50.5 °F 46.2 °F 30.21 in ESE 4.0 mph 8.0 mph 85 % 0.00 in 0.00 W/m2
00:51 50.5 °F 45.8 °F 30.21 in Calm   6.0 mph 84 % 0.00 in 0.00 W/m2
00:56 50.5 °F 45.8 °F 30.22 in Calm   6.0 mph 84 % 0.00 in 0.00 W/m2
01:01 50.5 °F 45.8 °F 30.22 in East 1.0 mph 7.0 mph 84 % 0.00 in 0.00 W/m2
01:06 50.4 °F 45.8 °F 30.21 in East 1.0 mph 6.0 mph 84 % 0.00 in 0.00 W/m2
01:11 50.3 °F 45.7 °F 30.22 in Calm   5.0 mph 84 % 0.00 in 0.00 W/m2
01:16 50.3 °F 45.7 °F 30.21 in Calm   6.0 mph 84 % 0.00 in 0.00 W/m2
01:21 50.2 °F 45.2 °F 30.21 in Calm   4.0 mph 83 % 0.00 in 0.00 W/m2
01:26 50.2 °F 45.2 °F 30.21 in Calm   5.0 mph 83 % 0.00 in 0.00 W/m2
01:31 50.2 °F 45.2 °F 30.22 in Calm   5.0 mph 83 % 0.00 in 0.00 W/m2
01:36 50.2 °F 45.2 °F 30.22 in East 2.0 mph 5.0 mph 83 % 0.00 in 0.00 W/m2
01:38 50.2 °F 45.2 °F 30.22 in East 1.0 mph 5.0 mph 83 % 0.00 in 0.00 W/m2
01:43 50.2 °F 45.2 °F 30.22 in Calm   4.0 mph 83 % 0.00 in 0.00 W/m2
01:48 50.1 °F 45.2 °F 30.22 in Calm   5.0 mph 83 % 0.00 in 0.00 W/m2
01:53 50.1 °F 45.2 °F 30.22 in Calm   4.0 mph 83 % 0.00 in 0.00 W/m2
01:58 50.0 °F 45.0 °F 30.21 in East 2.0 mph 4.0 mph 83 % 0.00 in 0.00 W/m2
02:03 50.0 °F 45.0 °F 30.22 in Calm   2.0 mph 83 % 0.00 in 0.00 W/m2
02:08 50.0 °F 45.0 °F 30.22 in Calm   1.0 mph 83 % 0.00 in 0.00 W/m2
02:13 49.9 °F 45.0 °F 30.21 in East 1.0 mph 4.0 mph 83 % 0.00 in 0.00 W/m2
02:18 49.9 °F 45.0 °F 30.21 in Calm   5.0 mph 83 % 0.00 in 0.00 W/m2
02:23 49.8 °F 44.8 °F 30.21 in Calm   2.0 mph 83 % 0.00 in 0.00 W/m2
02:24 49.8 °F 44.8 °F 30.21 in East 1.0 mph 2.0 mph 83 % 0.00 in 0.00 W/m2
02:29 49.7 °F 44.8 °F 30.20 in Calm   5.0 mph 83 % 0.00 in 0.00 W/m2
02:34 49.7 °F 44.8 °F 30.20 in East 2.0 mph 5.0 mph 83 % 0.00 in 0.00 W/m2
02:39 49.6 °F 44.0 °F 30.20 in Calm   4.0 mph 81 % 0.00 in 0.00 W/m2
02:44 49.6 °F 44.0 °F 30.21 in Calm   4.0 mph 81 % 0.00 in 0.00 W/m2
02:49 49.7 °F 44.4 °F 30.21 in Calm   2.0 mph 82 % 0.00 in 0.00 W/m2
02:54 49.7 °F 44.4 °F 30.21 in Calm   2.0 mph 82 % 0.00 in 0.00 W/m2
02:59 49.6 °F 44.0 °F 30.20 in Calm   5.0 mph 81 % 0.00 in 0.00 W/m2
03:04 49.6 °F 44.0 °F 30.20 in Calm   4.0 mph 81 % 0.00 in 0.00 W/m2
03:09 49.5 °F 43.9 °F 30.20 in Calm   5.0 mph 81 % 0.00 in 0.00 W/m2
03:14 49.5 °F 43.9 °F 30.20 in East 1.0 mph 5.0 mph 81 % 0.00 in 0.00 W/m2
03:19 49.5 °F 43.9 °F 30.20 in East 2.0 mph 4.0 mph 81 % 0.00 in 0.00 W/m2
03:24 49.5 °F 43.9 °F 30.20 in Calm   4.0 mph 81 % 0.00 in 0.00 W/m2
03:29 49.5 °F 43.9 °F 30.20 in Calm   4.0 mph 81 % 0.00 in 0.00 W/m2
03:34 49.4 °F 43.8 °F 30.20 in East 1.0 mph 5.0 mph 81 % 0.00 in 0.00 W/m2
03:39 49.4 °F 43.5 °F 30.20 in Calm   4.0 mph 80 % 0.00 in 0.00 W/m2
03:44 49.4 °F 43.5 °F 30.20 in Calm   2.0 mph 80 % 0.00 in 0.00 W/m2
03:49 49.4 °F 43.5 °F 30.20 in Calm   2.0 mph 80 % 0.00 in 0.00 W/m2
03:54 49.4 °F 43.5 °F 30.20 in East 1.0 mph 2.0 mph 80 % 0.00 in 0.00 W/m2
03:59 49.4 °F 43.2 °F 30.20 in Calm   4.0 mph 79 % 0.00 in 0.00 W/m2
04:04 49.4 °F 43.2 °F 30.20 in East 4.0 mph 5.0 mph 79 % 0.00 in 0.00 W/m2
04:09 49.4 °F 43.5 °F 30.20 in East 4.0 mph 6.0 mph 80 % 0.00 in 0.00 W/m2
04:14 49.4 °F 43.5 °F 30.20 in East 2.0 mph 5.0 mph 80 % 0.00 in 0.00 W/m2
04:19 49.3 °F 43.4 °F 30.19 in Calm   4.0 mph 80 % 0.00 in 0.00 W/m2
04:24 49.2 °F 43.3 °F 30.19 in East 1.0 mph 4.0 mph 80 % 0.00 in 0.00 W/m2
04:29 49.2 °F 43.3 °F 30.19 in East 2.0 mph 2.0 mph 80 % 0.00 in 0.00 W/m2
04:34 49.2 °F 43.3 °F 30.19 in East 1.0 mph 2.0 mph 80 % 0.00 in 0.00 W/m2
04:39 49.1 °F 43.2 °F 30.19 in East 2.0 mph 5.0 mph 80 % 0.00 in 0.00 W/m2
04:44 49.1 °F 43.2 °F 30.19 in East 1.0 mph 6.0 mph 80 % 0.00 in 0.00 W/m2
04:49 49.1 °F 43.2 °F 30.19 in East 1.0 mph 3.0 mph 80 % 0.00 in 0.00 W/m2
04:54 49.1 °F 43.2 °F 30.20 in East 4.0 mph 4.0 mph 80 % 0.00 in 0.00 W/m2
04:59 49.2 °F 43.0 °F 30.20 in Calm   3.0 mph 79 % 0.00 in 0.00 W/m2
05:04 49.2 °F 43.3 °F 30.20 in Calm     80 % 0.00 in 0.00 W/m2
05:09 49.2 °F 43.0 °F 30.20 in East 2.0 mph 4.0 mph 79 % 0.00 in 0.00 W/m2
05:14 49.2 °F 43.0 °F 30.21 in East 2.0 mph 3.0 mph 79 % 0.00 in 0.00 W/m2
05:19 49.2 °F 42.6 °F 30.20 in Calm   3.0 mph 78 % 0.00 in 0.00 W/m2
05:24 49.3 °F 42.7 °F 30.21 in East 2.0 mph 3.0 mph 78 % 0.00 in 0.00 W/m2
05:29 49.4 °F 42.5 °F 30.21 in Calm   3.0 mph 77 % 0.00 in 0.00 W/m2
05:34 49.6 °F 43.4 °F 30.21 in ENE 3.0 mph 4.0 mph 79 % 0.00 in 0.00 W/m2
05:39 49.7 °F 43.1 °F 30.21 in ENE 2.0 mph 3.0 mph 78 % 0.00 in 0.00 W/m2
05:44 49.7 °F 43.1 °F 30.20 in East 2.0 mph 5.0 mph 78 % 0.00 in 0.00 W/m2
05:49 49.8 °F 43.2 °F 30.20 in Calm   3.0 mph 78 % 0.00 in 0.00 W/m2
05:54 49.7 °F 43.1 °F 30.20 in East 1.0 mph 2.0 mph 78 % 0.00 in 0.00 W/m2
05:59 49.7 °F 43.5 °F 30.20 in East 2.0 mph 3.0 mph 79 % 0.00 in 0.00 W/m2
06:04 49.5 °F 42.9 °F 30.20 in East 2.0 mph 5.0 mph 78 % 0.00 in 0.00 W/m2
06:09 49.4 °F 43.2 °F 30.20 in Calm   2.0 mph 79 % 0.00 in 0.00 W/m2
06:14 49.3 °F 42.7 °F 30.20 in Calm   4.0 mph 78 % 0.00 in 0.00 W/m2
06:19 49.3 °F 42.7 °F 30.20 in East 2.0 mph 3.0 mph 78 % 0.00 in 0.00 W/m2
06:24 49.3 °F 42.7 °F 30.20 in East 1.0 mph 5.0 mph 78 % 0.00 in 0.00 W/m2
06:29 49.2 °F 42.6 °F 30.20 in Calm   6.0 mph 78 % 0.00 in 5.00 W/m2
06:34 49.3 °F 42.7 °F 30.20 in Calm   6.0 mph 78 % 0.00 in 11.00 W/m2
06:39 49.3 °F 42.7 °F 30.20 in Calm   4.0 mph 78 % 0.00 in 14.00 W/m2
06:44 49.3 °F 42.7 °F 30.20 in East 2.0 mph 6.0 mph 78 % 0.00 in 18.00 W/m2
06:49 49.3 °F 42.7 °F 30.20 in Calm   5.0 mph 78 % 0.00 in 23.00 W/m2
06:54 49.4 °F 42.8 °F 30.20 in ESE 2.0 mph 7.0 mph 78 % 0.00 in 25.00 W/m2
06:59 49.4 °F 42.5 °F 30.20 in East 7.0 mph 7.0 mph 77 % 0.00 in 26.00 W/m2
07:04 49.4 °F 42.5 °F 30.20 in Calm   6.0 mph 77 % 0.00 in 33.00 W/m2
07:09 49.5 °F 42.6 °F 30.20 in Calm   7.0 mph 77 % 0.00 in 40.00 W/m2
07:14 49.5 °F 42.6 °F 30.21 in ESE 5.0 mph 6.0 mph 77 % 0.00 in 49.00 W/m2
07:19 49.6 °F 42.7 °F 30.21 in East 2.0 mph 8.0 mph 77 % 0.00 in 54.00 W/m2
07:24 49.7 °F 42.8 °F 30.21 in ESE 4.0 mph 6.0 mph 77 % 0.00 in 62.00 W/m2
07:29 49.8 °F 42.5 °F 30.21 in Calm   6.0 mph 76 % 0.00 in 72.00 W/m2
07:34 49.9 °F 42.7 °F 30.21 in ESE 1.0 mph 6.0 mph 76 % 0.00 in 84.00 W/m2
07:39 50.0 °F 42.4 °F 30.21 in Calm   5.0 mph 75 % 0.00 in 93.00 W/m2
07:44 50.2 °F 42.6 °F 30.22 in ESE 2.0 mph 7.0 mph 75 % 0.00 in 100.00 W/m2
07:49 50.3 °F 43.0 °F 30.22 in ESE 2.0 mph 5.0 mph 76 % 0.00 in 102.00 W/m2
07:54 50.4 °F 42.8 °F 30.22 in Calm   7.0 mph 75 % 0.00 in 105.00 W/m2
07:59 50.6 °F 42.6 °F 30.22 in East 2.0 mph 8.0 mph 74 % 0.00 in 121.00 W/m2
08:04 50.7 °F 42.7 °F 30.22 in East 8.0 mph 8.0 mph 74 % 0.00 in 127.00 W/m2
08:10 51.0 °F 43.7 °F 30.22 in Calm   6.0 mph 76 % 0.00 in 121.00 W/m2
08:14 51.2 °F 43.6 °F 30.22 in East 2.0 mph 6.0 mph 75 % 0.00 in 118.00 W/m2
08:20 51.4 °F 43.8 °F 30.21 in East 2.0 mph 6.0 mph 75 % 0.00 in 118.00 W/m2
08:24 51.5 °F 43.8 °F 30.22 in East 1.0 mph 4.0 mph 75 % 0.00 in 123.00 W/m2
08:29 51.6 °F 44.0 °F 30.21 in Calm   4.0 mph 75 % 0.00 in 128.00 W/m2
08:34 51.8 °F 44.1 °F 30.21 in Calm   2.0 mph 75 % 0.00 in 137.00 W/m2
08:40 52.0 °F 44.3 °F 30.21 in East 1.0 mph 5.0 mph 75 % 0.00 in 146.00 W/m2
08:45 52.2 °F 44.5 °F 30.21 in Calm   2.0 mph 75 % 0.00 in 163.00 W/m2
08:50 52.3 °F 44.6 °F 30.21 in East 1.0 mph 4.0 mph 75 % 0.00 in 181.00 W/m2
08:55 52.5 °F 45.2 °F 30.22 in Calm   1.0 mph 76 % 0.00 in 195.00 W/m2
09:00 52.6 °F 44.9 °F 30.22 in Calm     75 % 0.00 in 199.00 W/m2
09:05 52.7 °F 45.0 °F 30.22 in Calm     75 % 0.00 in 176.00 W/m2
09:10 52.9 °F 45.5 °F 30.22 in Calm     76 % 0.00 in 181.00 W/m2
09:15 53.1 °F 46.1 °F 30.22 in Calm     77 % 0.00 in 193.00 W/m2
09:20 53.3 °F 46.3 °F 30.23 in Calm     77 % 0.00 in 206.00 W/m2
09:25 53.4 °F 46.7 °F 30.22 in Calm     78 % 0.00 in 209.00 W/m2
09:30 53.6 °F 46.6 °F 30.22 in Calm     77 % 0.00 in 200.00 W/m2
09:35 53.8 °F 46.8 °F 30.23 in Calm     77 % 0.00 in 193.00 W/m2
09:41 54.0 °F 46.3 °F 30.23 in Calm     75 % 0.00 in 202.00 W/m2
09:46 54.1 °F 46.4 °F 30.23 in Calm     75 % 0.00 in 213.00 W/m2
09:51 54.4 °F 47.0 °F 30.23 in Calm     76 % 0.00 in 236.00 W/m2
09:56 54.5 °F 47.5 °F 30.22 in Calm     77 % 0.00 in 248.00 W/m2
10:01 54.7 °F 47.3 °F 30.22 in Calm     76 % 0.00 in 257.00 W/m2
10:06 54.8 °F 46.7 °F 30.22 in Calm     74 % 0.00 in 265.00 W/m2
10:11 55.1 °F 47.3 °F 30.22 in Calm     75 % 0.00 in 279.00 W/m2
10:16 55.7 °F 49.0 °F 30.22 in Calm     78 % 0.00 in 267.00 W/m2
10:21 56.2 °F 49.8 °F 30.22 in Calm     79 % 0.00 in 264.00 W/m2
10:26 56.5 °F 50.1 °F 30.23 in Calm     79 % 0.00 in 262.00 W/m2
10:31 56.7 °F 49.9 °F 30.23 in Calm     78 % 0.00 in 258.00 W/m2
10:36 56.7 °F 49.2 °F 30.23 in Calm     76 % 0.00 in 257.00 W/m2
10:41 56.8 °F 49.7 °F 30.23 in Calm     77 % 0.00 in 292.00 W/m2
10:46 56.8 °F 49.7 °F 30.22 in Calm     77 % 0.00 in 338.00 W/m2
10:47 56.9 °F 49.8 °F 30.22 in Calm     77 % 0.00 in 343.00 W/m2
10:52 56.9 °F 48.0 °F 30.22 in Calm     72 % 0.00 in 359.00 W/m2
10:57 57.2 °F 48.3 °F 30.22 in Calm     72 % 0.00 in 381.00 W/m2
11:02 57.5 °F 48.9 °F 30.22 in Calm     73 % 0.00 in 385.00 W/m2
11:07 57.8 °F 48.5 °F 30.22 in Calm     71 % 0.00 in 371.00 W/m2
11:12 58.1 °F 48.0 °F 30.22 in Calm     69 % 0.00 in 332.00 W/m2
11:17 58.2 °F 48.1 °F 30.22 in Calm     69 % 0.00 in 364.00 W/m2
11:22 58.4 °F 47.5 °F 30.22 in Calm     67 % 0.00 in 408.00 W/m2
11:27 58.5 °F 47.6 °F 30.22 in Calm     67 % 0.00 in 373.00 W/m2
11:32 58.7 °F 48.2 °F 30.22 in Calm     68 % 0.00 in 369.00 W/m2
11:37 58.9 °F 48.4 °F 30.22 in Calm     68 % 0.00 in 369.00 W/m2
11:42 59.0 °F 47.3 °F 30.22 in Calm     65 % 0.00 in 348.00 W/m2
11:47 59.2 °F 47.0 °F 30.21 in Calm     64 % 0.00 in 329.00 W/m2
11:52 59.4 °F 46.4 °F 30.21 in East 2.0 mph 3.0 mph 62 % 0.00 in 322.00 W/m2
11:57 59.6 °F 47.4 °F 30.21 in East 2.0 mph 3.0 mph 64 % 0.00 in 323.00 W/m2
12:02 59.8 °F 47.6 °F 30.21 in Calm     64 % 0.00 in 302.00 W/m2
12:07 59.9 °F 48.5 °F 30.21 in Calm   2.0 mph 66 % 0.00 in 295.00 W/m2
12:12 60.0 °F 50.2 °F 30.21 in Calm     70 % 0.00 in 281.00 W/m2
12:17 59.9 °F 49.3 °F 30.20 in Calm     68 % 0.00 in 271.00 W/m2
12:22 59.9 °F 49.3 °F 30.20 in Calm     68 % 0.00 in 264.00 W/m2
12:27 59.8 °F 48.8 °F 30.20 in Calm     67 % 0.00 in 244.00 W/m2
12:32 59.7 °F 49.9 °F 30.20 in Calm     70 % 0.00 in 244.00 W/m2
12:37 59.5 °F 48.2 °F 30.20 in NE 3.0 mph 3.0 mph 66 % 0.00 in 246.00 W/m2
12:42 59.4 °F 48.8 °F 30.19 in NNE 2.0 mph 3.0 mph 68 % 0.00 in 239.00 W/m2
12:47 59.3 °F 48.4 °F 30.19 in Calm     67 % 0.00 in 229.00 W/m2
12:52 59.2 °F 48.7 °F 30.19 in NNE 3.0 mph 4.0 mph 68 % 0.00 in 214.00 W/m2
12:57 59.1 °F 47.4 °F 30.19 in Calm   2.0 mph 65 % 0.00 in 213.00 W/m2
13:02 59.1 °F 47.8 °F 30.19 in Calm   3.0 mph 66 % 0.00 in 216.00 W/m2
13:07 59.1 °F 48.2 °F 30.19 in North 4.0 mph 4.0 mph 67 % 0.00 in 213.00 W/m2
13:12 59.1 °F 48.6 °F 30.19 in North 3.0 mph 4.0 mph 68 % 0.00 in 216.00 W/m2
13:17 59.2 °F 49.4 °F 30.18 in North 2.0 mph 5.0 mph 70 % 0.00 in 214.00 W/m2
13:22 59.2 °F 49.8 °F 30.18 in Calm   7.0 mph 71 % 0.00 in 214.00 W/m2
13:27 59.1 °F 49.7 °F 30.18 in NNW 5.0 mph 6.0 mph 71 % 0.00 in 206.00 W/m2
13:32 59.1 °F 49.7 °F 30.18 in North 3.0 mph 5.0 mph 71 % 0.00 in 213.00 W/m2
13:37 59.1 °F 50.8 °F 30.18 in North 3.0 mph 6.0 mph 74 % 0.00 in 230.00 W/m2
13:42 59.1 °F 50.5 °F 30.18 in North 2.0 mph 4.0 mph 73 % 0.00 in 258.00 W/m2
13:48 59.1 °F 50.1 °F 30.18 in Calm   3.0 mph 72 % 0.00 in 287.00 W/m2
13:53 59.2 °F 50.2 °F 30.17 in Calm   3.0 mph 72 % 0.00 in 283.00 W/m2
13:58 59.4 °F 50.8 °F 30.17 in North 3.0 mph 5.0 mph 73 % 0.00 in 267.00 W/m2
14:03 59.5 °F 50.5 °F 30.17 in North 2.0 mph 5.0 mph 72 % 0.00 in 281.00 W/m2
14:08 59.7 °F 50.7 °F 30.17 in Calm   1.0 mph 72 % 0.00 in 295.00 W/m2
14:13 59.9 °F 50.9 °F 30.17 in Calm   4.0 mph 72 % 0.00 in 292.00 W/m2
14:18 60.2 °F 50.8 °F 30.17 in Calm   3.0 mph 71 % 0.00 in 290.00 W/m2
14:23 60.4 °F 51.3 °F 30.17 in Calm     72 % 0.00 in 299.00 W/m2
14:28 60.6 °F 51.9 °F 30.17 in NNW 4.0 mph 6.0 mph 73 % 0.00 in 281.00 W/m2
14:33 60.7 °F 50.9 °F 30.17 in NNW 2.0 mph 4.0 mph 70 % 0.00 in 272.00 W/m2
14:38 60.8 °F 52.1 °F 30.17 in NNW 5.0 mph 5.0 mph 73 % 0.00 in 267.00 W/m2
14:43 60.9 °F 51.1 °F 30.17 in North 3.0 mph 6.0 mph 70 % 0.00 in 279.00 W/m2
14:48 60.9 °F 51.5 °F 30.16 in Calm     71 % 0.00 in 373.00 W/m2
14:53 61.0 °F 51.9 °F 30.17 in North 4.0 mph 4.0 mph 72 % 0.00 in 526.00 W/m2
14:58 61.2 °F 52.1 °F 30.17 in North 1.0 mph 2.0 mph 72 % 0.00 in 308.00 W/m2
15:03 61.3 °F 52.2 °F 30.17 in Calm   5.0 mph 72 % 0.00 in 258.00 W/m2
15:08 61.3 °F 52.2 °F 30.16 in Calm   2.0 mph 72 % 0.00 in 371.00 W/m2
15:13 61.3 °F 52.6 °F 30.16 in NNW 1.0 mph 3.0 mph 73 % 0.00 in 371.00 W/m2
15:18 61.4 °F 51.9 °F 30.16 in NNW 3.0 mph 6.0 mph 71 % 0.00 in 619.00 W/m2
15:23 61.6 °F 52.9 °F 30.16 in Calm   2.0 mph 73 % 0.00 in 550.00 W/m2
15:28 61.7 °F 53.0 °F 30.15 in NNW 1.0 mph 5.0 mph 73 % 0.00 in 519.00 W/m2
15:33 61.9 °F 52.4 °F 30.15 in NNW 1.0 mph 5.0 mph 71 % 0.00 in 482.00 W/m2
15:38 62.1 °F 53.0 °F 30.15 in Calm     72 % 0.00 in 454.00 W/m2
15:43 62.1 °F 53.0 °F 30.15 in Calm   3.0 mph 72 % 0.00 in 431.00 W/m2
15:48 62.2 °F 53.1 °F 30.15 in NNW 3.0 mph 4.0 mph 72 % 0.00 in 411.00 W/m2
15:53 62.2 °F 52.3 °F 30.15 in WNW 2.0 mph 5.0 mph 70 % 0.00 in 394.00 W/m2
15:58 62.3 °F 52.4 °F 30.15 in WNW 1.0 mph 4.0 mph 70 % 0.00 in 381.00 W/m2
16:03 62.4 °F 51.7 °F 30.15 in NW 5.0 mph 6.0 mph 68 % 0.00 in 345.00 W/m2
16:08 62.5 °F 51.4 °F 30.14 in Calm   5.0 mph 67 % 0.00 in 206.00 W/m2
16:13 62.6 °F 51.1 °F 30.15 in NNW 1.0 mph 7.0 mph 66 % 0.00 in 258.00 W/m2
16:18 62.6 °F 51.9 °F 30.14 in Calm   3.0 mph 68 % 0.00 in 211.00 W/m2
16:23 62.6 °F 52.7 °F 30.15 in Calm   4.0 mph 70 % 0.00 in 171.00 W/m2
16:28 62.6 °F 53.1 °F 30.14 in NNW 1.0 mph 2.0 mph 71 % 0.00 in 339.00 W/m2
16:33 62.5 °F 53.0 °F 30.14 in Calm     71 % 0.00 in 278.00 W/m2
16:38 62.3 °F 50.4 °F 30.14 in Calm   3.0 mph 65 % 0.00 in 243.00 W/m2
16:43 62.3 °F 51.2 °F 30.14 in NNW 3.0 mph 3.0 mph 67 % 0.00 in 223.00 W/m2
16:48 62.2 °F 52.7 °F 30.14 in Calm   2.0 mph 71 % 0.00 in 202.00 W/m2
16:53 62.0 °F 52.9 °F 30.14 in Calm     72 % 0.00 in 181.00 W/m2
16:58 61.7 °F 51.8 °F 30.14 in Calm     70 % 0.00 in 160.00 W/m2
17:03 61.5 °F 51.6 °F 30.14 in Calm   2.0 mph 70 % 0.00 in 141.00 W/m2
17:08 61.5 °F 52.0 °F 30.14 in Calm   2.0 mph 71 % 0.00 in 120.00 W/m2
17:14 61.3 °F 52.6 °F 30.14 in Calm   1.0 mph 73 % 0.00 in 102.00 W/m2
17:19 61.1 °F 52.4 °F 30.14 in Calm   2.0 mph 73 % 0.00 in 83.00 W/m2
17:24 60.8 °F 52.1 °F 30.14 in Calm   4.0 mph 73 % 0.00 in 65.00 W/m2
17:29 60.7 °F 52.7 °F 30.14 in Calm     75 % 0.00 in 49.00 W/m2
17:34 60.5 °F 52.9 °F 30.14 in Calm     76 % 0.00 in 37.00 W/m2
17:39 60.1 °F 52.9 °F 30.14 in Calm     77 % 0.00 in 26.00 W/m2
17:44 59.6 °F 52.7 °F 30.13 in Calm     78 % 0.00 in 18.00 W/m2
17:49 59.3 °F 52.8 °F 30.14 in Calm     79 % 0.00 in 14.00 W/m2
17:54 58.9 °F 53.1 °F 30.14 in Calm     81 % 0.00 in 12.00 W/m2
17:59 58.5 °F 53.0 °F 30.13 in Calm     82 % 0.00 in 11.00 W/m2
18:04 58.2 °F 52.7 °F 30.13 in Calm     82 % 0.00 in 7.00 W/m2
18:09 57.9 °F 52.8 °F 30.13 in Calm     83 % 0.00 in 5.00 W/m2
18:14 57.5 °F 52.4 °F 30.13 in Calm     83 % 0.00 in 0.00 W/m2
18:19 57.2 °F 52.4 °F 30.13 in Calm     84 % 0.00 in 0.00 W/m2
18:24 57.0 °F 52.5 °F 30.13 in Calm     85 % 0.00 in 0.00 W/m2
18:29 56.8 °F 52.3 °F 30.13 in Calm     85 % 0.00 in 0.00 W/m2
18:34 56.6 °F 52.2 °F 30.13 in Calm     85 % 0.00 in 0.00 W/m2
18:39 56.4 °F 52.0 °F 30.13 in Calm     85 % 0.00 in 0.00 W/m2
18:44 56.0 °F 51.9 °F 30.13 in Calm     86 % 0.00 in 0.00 W/m2
18:49 55.8 °F 51.7 °F 30.13 in Calm     86 % 0.00 in 0.00 W/m2
18:54 55.5 °F 51.7 °F 30.13 in Calm     87 % 0.00 in 0.00 W/m2
18:59 55.4 °F 51.6 °F 30.13 in Calm     87 % 0.00 in 0.00 W/m2
19:04 55.3 °F 51.5 °F 30.13 in Calm     87 % 0.00 in 0.00 W/m2
19:09 55.2 °F 51.7 °F 30.14 in Calm     88 % 0.00 in 0.00 W/m2
19:14 55.1 °F 51.6 °F 30.14 in Calm     88 % 0.00 in 0.00 W/m2
19:19 55.1 °F 51.6 °F 30.14 in Calm     88 % 0.00 in 0.00 W/m2
19:24 55.1 °F 51.6 °F 30.15 in Calm     88 % 0.00 in 0.00 W/m2
19:29 55.0 °F 51.5 °F 30.15 in Calm     88 % 0.00 in 0.00 W/m2
19:34 54.9 °F 51.7 °F 30.15 in Calm     89 % 0.00 in 0.00 W/m2
19:39 54.7 °F 51.5 °F 30.15 in Calm     89 % 0.00 in 0.00 W/m2
19:44 54.6 °F 51.4 °F 30.15 in Calm     89 % 0.00 in 0.00 W/m2
19:49 54.5 °F 51.3 °F 30.15 in Calm     89 % 0.00 in 0.00 W/m2
19:54 54.4 °F 51.2 °F 30.15 in Calm     89 % 0.00 in 0.00 W/m2
20:00 54.3 °F 51.4 °F 30.15 in Calm     90 % 0.00 in 0.00 W/m2
20:05 54.1 °F 51.2 °F 30.15 in Calm     90 % 0.00 in 0.00 W/m2
20:10 54.0 °F 50.8 °F 30.15 in Calm     89 % 0.00 in 0.00 W/m2
20:15 53.9 °F 50.7 °F 30.15 in Calm     89 % 0.00 in 0.00 W/m2
20:20 53.8 °F 50.6 °F 30.16 in Calm     89 % 0.00 in 0.00 W/m2
20:25 53.7 °F 50.5 °F 30.16 in Calm     89 % 0.00 in 0.00 W/m2
20:30 53.6 °F 50.4 °F 30.16 in Calm     89 % 0.00 in 0.00 W/m2
20:35 53.4 °F 50.5 °F 30.16 in Calm     90 % 0.00 in 0.00 W/m2
20:40 53.1 °F 50.2 °F 30.16 in Calm     90 % 0.00 in 0.00 W/m2
20:45 53.0 °F 50.2 °F 30.16 in Calm     90 % 0.00 in 0.00 W/m2
20:50 52.8 °F 50.0 °F 30.16 in Calm     90 % 0.00 in 0.00 W/m2
20:55 52.7 °F 49.8 °F 30.16 in Calm     90 % 0.00 in 0.00 W/m2
21:00 52.6 °F 50.0 °F 30.16 in Calm     91 % 0.00 in 0.00 W/m2
21:05 52.6 °F 50.0 °F 30.16 in Calm     91 % 0.00 in 0.00 W/m2
21:10 52.5 °F 50.0 °F 30.16 in Calm     91 % 0.00 in 0.00 W/m2
21:15 52.5 °F 50.0 °F 30.16 in Calm     91 % 0.00 in 0.00 W/m2
21:20 52.4 °F 49.6 °F 30.16 in Calm     90 % 0.00 in 0.00 W/m2
21:25 52.3 °F 49.5 °F 30.16 in Calm     90 % 0.00 in 0.00 W/m2
21:30 52.3 °F 49.5 °F 30.16 in North 4.0 mph 4.0 mph 90 % 0.00 in 0.00 W/m2
21:31 52.3 °F 49.5 °F 30.16 in North 2.0 mph 4.0 mph 90 % 0.00 in 0.00 W/m2
21:36 52.1 °F 49.3 °F 30.16 in Calm   6.0 mph 90 % 0.00 in 0.00 W/m2
21:41 52.1 °F 49.0 °F 30.16 in Calm     89 % 0.00 in 0.00 W/m2
21:46 51.9 °F 48.8 °F 30.16 in NE 5.0 mph 5.0 mph 89 % 0.00 in 0.00 W/m2
21:51 51.8 °F 48.7 °F 30.15 in NE 2.0 mph 6.0 mph 89 % 0.00 in 0.00 W/m2
21:56 51.7 °F 48.3 °F 30.16 in NE 4.0 mph 6.0 mph 88 % 0.00 in 0.00 W/m2
22:01 51.6 °F 47.9 °F 30.16 in ENE 2.0 mph 7.0 mph 87 % 0.00 in 0.00 W/m2
22:06 51.4 °F 47.7 °F 30.15 in East 2.0 mph 3.0 mph 87 % 0.00 in 0.00 W/m2
22:11 51.3 °F 47.6 °F 30.15 in East 3.0 mph 3.0 mph 87 % 0.00 in 0.00 W/m2
22:16 51.2 °F 47.2 °F 30.15 in Calm   5.0 mph 86 % 0.00 in 0.00 W/m2
22:21 51.1 °F 47.1 °F 30.15 in East 1.0 mph 4.0 mph 86 % 0.00 in 0.00 W/m2
22:26 51.0 °F 47.0 °F 30.15 in East 4.0 mph 4.0 mph 86 % 0.00 in 0.00 W/m2
22:31 51.0 °F 46.7 °F 30.15 in East 1.0 mph 5.0 mph 85 % 0.00 in 0.00 W/m2
22:36 50.9 °F 46.6 °F 30.15 in East 4.0 mph 6.0 mph 85 % 0.00 in 0.00 W/m2
22:41 50.9 °F 46.6 °F 30.15 in East 4.0 mph 6.0 mph 85 % 0.00 in 0.00 W/m2
22:46 50.8 °F 46.2 °F 30.14 in East 1.0 mph 8.0 mph 84 % 0.00 in 0.00 W/m2
22:51 50.8 °F 46.2 °F 30.14 in East 1.0 mph 7.0 mph 84 % 0.00 in 0.00 W/m2
22:56 50.8 °F 46.2 °F 30.14 in East 2.0 mph 9.0 mph 84 % 0.00 in 0.00 W/m2
23:01 50.8 °F 45.8 °F 30.14 in ESE 2.0 mph 8.0 mph 83 % 0.00 in 0.00 W/m2
23:06 50.8 °F 45.8 °F 30.14 in ESE 5.0 mph 6.0 mph 83 % 0.00 in 0.00 W/m2
23:11 50.8 °F 45.5 °F 30.14 in ESE 4.0 mph 4.0 mph 82 % 0.00 in 0.00 W/m2
23:16 50.8 °F 45.2 °F 30.14 in ESE 1.0 mph 8.0 mph 81 % 0.00 in 0.00 W/m2
23:21 50.8 °F 45.2 °F 30.14 in Calm   6.0 mph 81 % 0.00 in 0.00 W/m2
23:26 50.8 °F 44.9 °F 30.15 in Calm   7.0 mph 80 % 0.00 in 0.00 W/m2
23:31 50.8 °F 44.9 °F 30.15 in ESE 1.0 mph 6.0 mph 80 % 0.00 in 0.00 W/m2
23:36 50.8 °F 44.5 °F 30.15 in ESE 6.0 mph 8.0 mph 79 % 0.00 in 0.00 W/m2
23:41 50.8 °F 44.5 °F 30.15 in Calm   6.0 mph 79 % 0.00 in 0.00 W/m2
23:46 50.7 °F 44.4 °F 30.15 in Calm   6.0 mph 79 % 0.00 in 0.00 W/m2
23:51 50.7 °F 44.4 °F 30.15 in ESE 1.0 mph 5.0 mph 79 % 0.00 in 0.00 W/m2
23:56 50.7 °F 44.4 °F 30.15 in ESE 5.0 mph 6.0 mph 79 % 0.00 in 0.00 W/m2
Juneau County Weather
Compliments of Weather Underground - 4.5 mb
 WU-history PHP script courtesy of   Juneau County Weather.
powered by Cumulus v1.9.3 (1059)
Ambient Weather VWS v14.00
Top Contact Website Map Copyright © 2007 - 2018 Foresthillweather.com Never base important decisions on this or any weather information obtained from the Internet